Zurück zum Katalog

STARLINK-4271

AktivKommunikationVLEO
NORAD 53012·PAYLOAD·🇺🇸 United States

Gestartet Jul 7, 2022 von Cape Canaveral Space Force Station

Loading…

Nächste Überflüge (nächste 24 Stunden)

TLE

AktuellSource: CelesTrak SupGP

Epoche: Sep 15, 2026, 01:32 UTC

1 53012C 22076AC  26258.06437500  .00041557  00000+0  13375-2 0  2586
2 53012  53.1600 317.0874 0001046  86.4804  86.4753 15.31654442    18

Verfolge STARLINK-4271 in Echtzeit mit AllMySat

Download on the App Store